JQ1YUX-13 Tokyo Ota-ku JP current weather conditions

sailwx.info

Wind from 010

Air temperature 25.6° C
Dewpoint 24.2° C

Last reported at 2016-Jul-30 19:30 UTC.
Time now 2016-Jul-30 20:45 UTC

Location: N 35°35' E 139°40'.
View on Google Maps.

See reports from other nearby stations

  
Tides and Currents Weather Stations Pressure Air Temp Water Temp Dewpoint Dewpoint Depression Visibility Wind Speed Wind Dir Waves Ship Positions
date/time (UTC)wind fromknots sea level pressurealtimeterstation pressurevisibilityair tempwater tempwave heightnotes
2016-Jul-30 19:30 010 25.6
2016-Jul-30 19:29 010 25.6
2016-Jul-30 19:00 015 26.1
2016-Jul-30 18:59 015 26.1
2016-Jul-30 18:30 048 26.1
2016-Jul-30 18:29 046 26.1
2016-Jul-30 18:00 019 26.1
2016-Jul-30 17:59 018 26.1
2016-Jul-30 17:30 160 26.1
2016-Jul-30 17:29 160 1 gusting 3 26.1
2016-Jul-30 17:00 180 26.1
2016-Jul-30 16:59 180 26.1
2016-Jul-30 16:30 180 26.1
2016-Jul-30 16:29 180 26.1
2016-Jul-30 16:00 180 26.1
2016-Jul-30 15:59 180 26.1
2016-Jul-30 15:30 180 26.1
2016-Jul-30 15:29 180 26.1
2016-Jul-30 15:00 180 26.7
2016-Jul-30 14:59 180 26.7
2016-Jul-30 14:30 180 26.7
2016-Jul-30 14:29 180 26.7
2016-Jul-30 14:00 181 26.7
2016-Jul-30 13:59 180 26.7
2016-Jul-30 13:30 180 26.7
2016-Jul-30 13:29 180 26.7
2016-Jul-30 13:00 180 27.2
2016-Jul-30 12:59 179 27.2
2016-Jul-30 12:30 180 27.2
2016-Jul-30 12:29 180 27.2
2016-Jul-30 12:00 180 27.8
2016-Jul-30 11:59 180 27.8
2016-Jul-30 11:30 180 27.8
2016-Jul-30 11:29 180 27.8
2016-Jul-30 11:00 178 28.3
2016-Jul-30 10:59 178 28.3
2016-Jul-30 10:30 176 28.3
2016-Jul-30 10:29 178 28.3
2016-Jul-30 10:00 303 28.9
2016-Jul-30 09:59 305 28.9
2016-Jul-30 09:30 250 30.0
2016-Jul-30 09:29 251 30.0
2016-Jul-30 09:00 259 31.1
2016-Jul-30 08:59 259 31.1
2016-Jul-30 08:30 209 32.8
2016-Jul-30 08:29 217 32.8
2016-Jul-30 08:00 323 33.3
2016-Jul-30 07:59 322 33.3
2016-Jul-30 07:30 339 33.9
2016-Jul-30 07:29 336 33.9
2016-Jul-30 07:00 183 0 gusting 4 33.3
2016-Jul-30 06:59 191 0 gusting 3 33.3
2016-Jul-30 06:30 202 0 gusting 5 34.4
2016-Jul-30 06:29 222 34.4
2016-Jul-30 06:00 194 34.4
2016-Jul-30 05:59 182 34.4
2016-Jul-30 05:30 194 34.4
2016-Jul-30 05:29 258 34.4
2016-Jul-30 05:00 173 0 33.9
2016-Jul-30 04:59 036 1 gusting 4 34.4
2016-Jul-30 04:30 259 33.9
2016-Jul-30 04:29 265 33.3
2016-Jul-30 04:00 211 33.9
2016-Jul-30 03:59 211 33.9
2016-Jul-30 03:30 248 33.3
2016-Jul-30 03:29 326 33.3
2016-Jul-30 03:00 350 33.3
2016-Jul-30 02:59 355 33.3
2016-Jul-30 02:30 045 32.2
2016-Jul-30 02:29 046 32.2
2016-Jul-30 02:00 011 32.8
2016-Jul-30 01:59 319 32.8
2016-Jul-30 01:30 195 30.6
2016-Jul-30 01:29 203 0 gusting 0 30.6
2016-Jul-30 01:00 164 30.0
2016-Jul-30 00:59 165 30.0
2016-Jul-30 00:30 165 28.9
2016-Jul-30 00:29 164 28.9
2016-Jul-30 00:00 165 28.9
2016-Jul-29 23:59 164 28.9
2016-Jul-29 23:30 163 27.8
2016-Jul-29 23:29 165 27.8
2016-Jul-29 23:00 164 26.7
2016-Jul-29 22:59 164 26.7
2016-Jul-29 22:30 165 25.0
2016-Jul-29 22:29 165 25.0
2016-Jul-29 22:00 164 24.4
2016-Jul-29 21:59 164 24.4
2016-Jul-29 21:30 164 23.9
2016-Jul-29 21:29 164 23.9
2016-Jul-29 21:00 164 23.3
2016-Jul-29 20:59 165 23.3
2016-Jul-29 20:30 163 23.3
2016-Jul-29 20:29 164 23.3
2016-Jul-29 20:00 164 23.3
2016-Jul-29 19:59 165 23.3
2016-Jul-29 19:30 163 23.3
2016-Jul-29 19:29 165 23.3
2016-Jul-29 19:00 164 23.9
2016-Jul-29 18:59 164 23.9
2016-Jul-29 18:30 164 23.9
2016-Jul-29 18:29 165 23.9
2016-Jul-29 18:00 165 24.4
2016-Jul-29 17:59 164 24.4
2016-Jul-29 17:30 164 24.4
2016-Jul-29 17:29 164 24.4
2016-Jul-29 17:00 164 24.4
2016-Jul-29 16:59 165 24.4
2016-Jul-29 16:30 164 24.4
2016-Jul-29 16:29 164 24.4
2016-Jul-29 16:00 164 25.0
2016-Jul-29 15:59 165 25.0
2016-Jul-29 15:30 164 25.0
2016-Jul-29 15:29 164 25.0
2016-Jul-29 15:00 164 25.0
2016-Jul-29 14:59 163 25.0
2016-Jul-29 14:30 164 25.6
2016-Jul-29 14:29 164 25.6
2016-Jul-29 14:00 165 25.6
2016-Jul-29 13:59 163 25.6
2016-Jul-29 13:30 164 25.6
2016-Jul-29 13:29 163 25.6
2016-Jul-29 13:00 163 0 gusting 2 26.1
2016-Jul-29 12:59 171 26.1
2016-Jul-29 12:30 170 26.1
2016-Jul-29 12:29 170 26.1
2016-Jul-29 12:00 169 26.1
2016-Jul-29 11:59 169 26.1
2016-Jul-29 11:30 184 26.7
2016-Jul-29 11:29 183 26.7
2016-Jul-29 11:00 192 26.7
2016-Jul-29 10:59 179 26.7
2016-Jul-29 10:30 234 27.2
2016-Jul-29 10:29 233 27.2
2016-Jul-29 10:00 179 27.2
2016-Jul-29 09:59 202 27.8
2016-Jul-29 09:30 252 0 gusting 5 28.3
2016-Jul-29 09:29 203 0 gusting 1 28.3
2016-Jul-29 09:00 181 0 gusting 5 28.9
2016-Jul-29 08:59 175 28.9
2016-Jul-29 08:30 165 0 gusting 4 30.0
2016-Jul-29 08:29 203 1 gusting 4 30.0
2016-Jul-29 08:00 169 30.6
2016-Jul-29 07:59 204 30.6
2016-Jul-29 07:30 227 0 gusting 4 30.6
2016-Jul-29 07:29 227 1 gusting 5 30.6
2016-Jul-29 07:00 164 1 gusting 3 30.6
2016-Jul-29 06:59 182 3 gusting 6 31.1
2016-Jul-29 06:30 221 1 gusting 6 32.2
2016-Jul-29 06:29 205 32.2
2016-Jul-29 06:00 172 0 gusting 0 32.8
2016-Jul-29 05:59 199 0 gusting 5 32.8
2016-Jul-29 05:30 188 1 gusting 6 32.2
2016-Jul-29 05:29 190 1 gusting 6 32.2
2016-Jul-29 05:00 196 0 gusting 5 32.8
2016-Jul-29 04:59 187 0 gusting 4 32.8
2016-Jul-29 04:30 192 32.2
2016-Jul-29 04:29 184 32.2
2016-Jul-29 04:00 210 0 gusting 5 31.7
2016-Jul-29 03:59 212 1 gusting 5 31.7
2016-Jul-29 03:30 191 0 gusting 4 31.7
2016-Jul-29 03:29 202 0 gusting 6 31.7
2016-Jul-29 03:00 225 31.7
2016-Jul-29 02:59 162 31.7
2016-Jul-29 02:30 199 30.0
2016-Jul-29 02:29 221 30.0
2016-Jul-29 02:00 179 31.1
2016-Jul-29 01:59 179 31.1
2016-Jul-29 01:30 198 30.0
2016-Jul-29 01:29 200 30.0
2016-Jul-29 01:00 173 30.0
2016-Jul-29 00:59 169 30.0
2016-Jul-29 00:30 205 0 gusting 5 29.4
2016-Jul-29 00:29 207 29.4
2016-Jul-29 00:00 220 1 gusting 5 28.3
2016-Jul-28 23:59 218 2 gusting 5 28.3
2016-Jul-28 23:30 200 27.8
2016-Jul-28 23:29 201 27.8
2016-Jul-28 23:00 221 26.1
2016-Jul-28 22:59 222 26.1
2016-Jul-28 22:30 181 26.1
2016-Jul-28 22:29 180 26.1
2016-Jul-28 22:00 176 25.0
2016-Jul-28 21:59 176 25.0
2016-Jul-28 21:30 176 24.4
2016-Jul-28 21:29 176 24.4
2016-Jul-28 21:00 176 24.4
2016-Jul-28 20:59 175 24.4
2016-Jul-28 20:30 175 23.9
2016-Jul-28 20:29 175 23.9
2016-Jul-28 20:00 175 23.9